Krabi, Thailand

8:15 AM +07 on March 24, 2017 (GMT +0700)
Ao Nang Weather Station | | Change Station

Elev 177 ft 8.05 °N, 98.84 °E | Updated 1 minute ago

Clear
Clear
82.2 °F
Feels Like 90 °F
N
0.0
Wind Variable Wind from North
Gusts 1.0 mph

Today
High -- | Low -- °F
--% Chance of Precip.
Yesterday
High -- | Low -- °F
Precip. -- in
Pressure 29.86 in
Visibility 5.6 miles
Clouds Few 2000 ft
Heat Index 90 °F
Dew Point 77 °F
Humidity 84%
Rainfall 0.00 in
Snow Depth Not available.
6:26 AM 6:34 PM
Waning Crescent, 19% visible
METAR VTSG 240100Z VRB02KT 9000 FEW020 25/24 Q1011
Pressure 29.86 in
Visibility 5.6 miles
Clouds Few 2000 ft
Heat Index 90 °F
Dew Point 77 °F
Humidity 84%
Rainfall 0.00 in
Snow Depth Not available.
6:26 AM 6:34 PM
Waning Crescent, 19% visible
METAR VTSG 240100Z VRB02KT 9000 FEW020 25/24 Q1011

Get Severe Weather Alerts

Thanks for signing up!

Be on the lookout for a verification email in your inbox.

You'll start receiving the daily forecast at 8 AM.

×

10-Day Weather Forecast

No radar image for this location.
×

Almanac

Astronomy

Mar. 24, 2017 Rise Set
Actual Time
Civil Twilight
Nautical Twilight
Astronomical Twilight
Moon
Length of Visible Light
Length of Day
Tomorrow will be .
, % of the Moon is Illuminated

Today's Extremes

Country Highs Country Lows

Community

WunderPhotos

Upload Photos

1,962,540 photos uploaded!

WunderBlog® & News

Nearby

Air Quality

  Air Quality AQ Index Pollutant
Not available.

Snow Depth

Station Depth Elevation

Earthquake Activity

City Distance Mag. Time & Date
Minimum magnitude displayed is 2.5.

Earthquake Activity

City Distance Mag. Time & Date
Minimum magnitude displayed is 2.5.

Coastal Water Temperatures

Place Temperature

Stations

Nearby Weather Stations

Station Location Temp. Windchill Dew Point Humidity Wind Precip. Elev Updated Type